Year,Month,Day,Hour,Minute,Value (Times are PST for temperature in C)
2024,04,22,00,00,7.00
2024,04,22,00,01,7.00
2024,04,22,00,02,7.00
2024,04,22,00,03,6.90
2024,04,22,00,04,6.90
2024,04,22,00,05,6.90
2024,04,22,00,06,6.90
2024,04,22,00,07,6.90
2024,04,22,00,08,6.80
2024,04,22,00,09,6.80
2024,04,22,00,10,6.80
2024,04,22,00,11,6.80
2024,04,22,00,12,6.80
2024,04,22,00,13,6.80
2024,04,22,00,14,6.80
2024,04,22,00,15,6.80
2024,04,22,00,16,6.80
2024,04,22,00,17,6.80
2024,04,22,00,18,6.70
2024,04,22,00,19,6.70
2024,04,22,00,20,6.70
2024,04,22,00,21,6.70
2024,04,22,00,22,6.70
2024,04,22,00,23,6.70
2024,04,22,00,24,6.70
2024,04,22,00,25,6.70
2024,04,22,00,26,6.70
2024,04,22,00,27,6.70
2024,04,22,00,28,6.60
2024,04,22,00,29,6.60
2024,04,22,00,30,6.60
2024,04,22,00,31,6.60
2024,04,22,00,32,6.60
2024,04,22,00,33,6.60
2024,04,22,00,34,6.60
2024,04,22,00,35,6.50
2024,04,22,00,36,6.50
2024,04,22,00,37,6.50
2024,04,22,00,38,6.50
2024,04,22,00,39,6.50
2024,04,22,00,40,6.50
2024,04,22,00,41,6.40
2024,04,22,00,42,6.40
2024,04,22,00,43,6.40
2024,04,22,00,44,6.40
2024,04,22,00,45,6.30
2024,04,22,00,46,6.30
2024,04,22,00,47,6.20
2024,04,22,00,48,6.20
2024,04,22,00,49,6.20
2024,04,22,00,50,6.10
2024,04,22,00,51,6.10
2024,04,22,00,52,6.10
2024,04,22,00,53,6.10
2024,04,22,00,54,6.10
2024,04,22,00,55,6.10
2024,04,22,00,56,6.10
2024,04,22,00,57,6.10
2024,04,22,00,58,6.10
2024,04,22,00,59,6.10
2024,04,22,01,00,6.10
2024,04,22,01,01,6.10
2024,04,22,01,02,6.10
2024,04,22,01,03,6.20
2024,04,22,01,04,6.20
2024,04,22,01,05,6.20
2024,04,22,01,06,6.30
2024,04,22,01,07,6.30
2024,04,22,01,08,6.30
2024,04,22,01,09,6.30
2024,04,22,01,10,6.30
2024,04,22,01,11,6.30
2024,04,22,01,12,6.30
2024,04,22,01,13,6.30
2024,04,22,01,14,6.40
2024,04,22,01,15,6.40
2024,04,22,01,16,6.30
2024,04,22,01,17,6.30
2024,04,22,01,18,6.30
2024,04,22,01,19,6.30
2024,04,22,01,20,6.30
2024,04,22,01,21,6.30
2024,04,22,01,22,6.30
2024,04,22,01,23,6.30
2024,04,22,01,24,6.20
2024,04,22,01,25,6.20
2024,04,22,01,26,6.20
2024,04,22,01,27,6.20
2024,04,22,01,28,6.10
2024,04,22,01,29,6.10
2024,04,22,01,30,6.10
2024,04,22,01,31,6.10
2024,04,22,01,32,6.10
2024,04,22,01,33,6.10
2024,04,22,01,34,6.10
2024,04,22,01,35,6.10
2024,04,22,01,36,6.10
2024,04,22,01,37,6.10
2024,04,22,01,38,6.10
2024,04,22,01,39,6.10
2024,04,22,01,40,6.10
2024,04,22,01,41,6.10
2024,04,22,01,42,6.10
2024,04,22,01,43,6.10
2024,04,22,01,44,6.10
2024,04,22,01,45,6.10
2024,04,22,01,46,6.10
2024,04,22,01,47,6.00
2024,04,22,01,48,6.00
2024,04,22,01,49,6.00
2024,04,22,01,50,6.00
2024,04,22,01,51,6.00
2024,04,22,01,52,5.90
2024,04,22,01,53,5.90
2024,04,22,01,54,5.90
2024,04,22,01,55,5.80
2024,04,22,01,56,5.80
2024,04,22,01,57,5.80
2024,04,22,01,58,5.80
2024,04,22,01,59,5.70
2024,04,22,02,00,5.70
2024,04,22,02,01,5.70
2024,04,22,02,02,5.60
2024,04,22,02,03,5.60
2024,04,22,02,04,5.60
2024,04,22,02,05,5.50
2024,04,22,02,06,5.50
2024,04,22,02,07,5.50
2024,04,22,02,08,5.40
2024,04,22,02,09,5.40
2024,04,22,02,10,5.40
2024,04,22,02,11,5.30
2024,04,22,02,12,5.30
2024,04,22,02,13,5.30
2024,04,22,02,14,5.20
2024,04,22,02,15,5.20
2024,04,22,02,16,5.20
2024,04,22,02,17,5.20
2024,04,22,02,18,5.10
2024,04,22,02,19,5.10
2024,04,22,02,20,5.10
2024,04,22,02,21,5.10
2024,04,22,02,22,5.10
2024,04,22,02,23,5.10
2024,04,22,02,24,5.10
2024,04,22,02,25,5.10
2024,04,22,02,26,5.00
2024,04,22,02,27,5.00
2024,04,22,02,28,5.00
2024,04,22,02,29,5.00
2024,04,22,02,30,5.00
2024,04,22,02,31,5.00
2024,04,22,02,32,5.00
2024,04,22,02,33,5.00
2024,04,22,02,34,5.00
2024,04,22,02,35,5.00
2024,04,22,02,36,5.00
2024,04,22,02,37,5.00
2024,04,22,02,38,5.00
2024,04,22,02,39,5.00
2024,04,22,02,40,5.00
2024,04,22,02,41,5.00
2024,04,22,02,42,5.00
2024,04,22,02,43,5.00
2024,04,22,02,44,5.00
2024,04,22,02,45,5.00
2024,04,22,02,46,5.00
2024,04,22,02,47,5.10
2024,04,22,02,48,5.10
2024,04,22,02,49,5.10
2024,04,22,02,50,5.10
2024,04,22,02,51,5.10
2024,04,22,02,52,5.10
2024,04,22,02,53,5.10
2024,04,22,02,54,5.10
2024,04,22,02,55,5.10
2024,04,22,02,56,5.10
2024,04,22,02,57,5.10
2024,04,22,02,58,5.10
2024,04,22,02,59,5.10
2024,04,22,03,00,5.10
2024,04,22,03,01,5.10
2024,04,22,03,02,5.10
2024,04,22,03,03,5.10
2024,04,22,03,04,5.10
2024,04,22,03,05,5.20
2024,04,22,03,06,5.20
2024,04,22,03,07,5.20
2024,04,22,03,08,5.20
2024,04,22,03,09,5.20
2024,04,22,03,10,5.20
2024,04,22,03,11,5.20
2024,04,22,03,12,5.10
2024,04,22,03,13,5.10
2024,04,22,03,14,5.10
2024,04,22,03,15,5.10
2024,04,22,03,16,5.00
2024,04,22,03,17,5.00
2024,04,22,03,18,5.00
2024,04,22,03,19,4.90
2024,04,22,03,20,4.90
2024,04,22,03,21,4.80
2024,04,22,03,22,4.80
2024,04,22,03,23,4.80
2024,04,22,03,24,4.80
2024,04,22,03,25,4.70
2024,04,22,03,26,4.70
2024,04,22,03,27,4.70
2024,04,22,03,28,4.60
2024,04,22,03,29,4.60
2024,04,22,03,30,4.60
2024,04,22,03,31,4.60
2024,04,22,03,32,4.50
2024,04,22,03,33,4.50
2024,04,22,03,34,4.40
2024,04,22,03,35,4.40
2024,04,22,03,36,4.40
2024,04,22,03,37,4.40
2024,04,22,03,38,4.30
2024,04,22,03,39,4.30
2024,04,22,03,40,4.30
2024,04,22,03,41,4.30
2024,04,22,03,42,4.20
2024,04,22,03,43,4.20
2024,04,22,03,44,4.20
2024,04,22,03,45,4.20
2024,04,22,03,46,4.20
2024,04,22,03,47,4.20
2024,04,22,03,48,4.20
2024,04,22,03,49,4.20
2024,04,22,03,50,4.20
2024,04,22,03,51,4.20
2024,04,22,03,52,4.20
2024,04,22,03,53,4.20
2024,04,22,03,54,4.20
2024,04,22,03,55,4.20
2024,04,22,03,56,4.20
2024,04,22,03,57,4.20
2024,04,22,03,58,4.20
2024,04,22,03,59,4.20
2024,04,22,04,00,4.20
2024,04,22,04,01,4.20
2024,04,22,04,02,4.20
2024,04,22,04,03,4.20
2024,04,22,04,04,4.20
2024,04,22,04,05,4.20
2024,04,22,04,06,4.30
2024,04,22,04,07,4.30
2024,04,22,04,08,4.40
2024,04,22,04,09,4.40
2024,04,22,04,10,4.40
2024,04,22,04,11,4.40
2024,04,22,04,12,4.40
2024,04,22,04,13,4.40
2024,04,22,04,14,4.40
2024,04,22,04,15,4.40
2024,04,22,04,16,4.40
2024,04,22,04,17,4.40
2024,04,22,04,18,4.30
2024,04,22,04,19,4.30
2024,04,22,04,20,4.30
2024,04,22,04,21,4.30
2024,04,22,04,22,4.30
2024,04,22,04,23,4.30
2024,04,22,04,24,4.30
2024,04,22,04,25,4.30
2024,04,22,04,26,4.30
2024,04,22,04,27,4.20
2024,04,22,04,28,4.20
2024,04,22,04,29,4.20
2024,04,22,04,30,4.20
2024,04,22,04,31,4.20
2024,04,22,04,32,4.20
2024,04,22,04,33,4.20
2024,04,22,04,34,4.20
2024,04,22,04,35,4.20
2024,04,22,04,36,4.20
2024,04,22,04,37,4.10
2024,04,22,04,38,4.10
2024,04,22,04,39,4.10
2024,04,22,04,40,4.10
2024,04,22,04,41,4.10
2024,04,22,04,42,4.00
2024,04,22,04,43,4.00
2024,04,22,04,44,4.00
2024,04,22,04,45,3.90
2024,04,22,04,46,3.90
2024,04,22,04,47,3.90
2024,04,22,04,48,3.80
2024,04,22,04,49,3.80
2024,04,22,04,50,3.80
2024,04,22,04,51,3.70
2024,04,22,04,52,3.70
2024,04,22,04,53,3.70
2024,04,22,04,54,3.70
2024,04,22,04,55,3.70
2024,04,22,04,56,3.60
2024,04,22,04,57,3.60
2024,04,22,04,58,3.60
2024,04,22,04,59,3.60
2024,04,22,05,00,3.60
2024,04,22,05,01,3.60
2024,04,22,05,02,3.60
2024,04,22,05,03,3.60
2024,04,22,05,04,3.60
2024,04,22,05,05,3.50
2024,04,22,05,06,3.50
2024,04,22,05,07,3.50
2024,04,22,05,08,3.50
2024,04,22,05,09,3.40
2024,04,22,05,10,3.40
2024,04,22,05,11,3.40
2024,04,22,05,12,3.40
2024,04,22,05,13,3.40
2024,04,22,05,14,3.40
2024,04,22,05,15,3.40
2024,04,22,05,16,3.40
2024,04,22,05,17,3.40
2024,04,22,05,18,3.40
2024,04,22,05,19,3.40
2024,04,22,05,20,3.40
2024,04,22,05,21,3.40
2024,04,22,05,22,3.30
2024,04,22,05,23,3.30
2024,04,22,05,24,3.30
2024,04,22,05,25,3.30
2024,04,22,05,26,3.30
2024,04,22,05,27,3.20
2024,04,22,05,28,3.20
2024,04,22,05,29,3.20
2024,04,22,05,30,3.20
2024,04,22,05,31,3.10
2024,04,22,05,32,3.10
2024,04,22,05,33,3.10
2024,04,22,05,34,3.10
2024,04,22,05,35,3.10
2024,04,22,05,36,3.10
2024,04,22,05,37,3.10
2024,04,22,05,38,3.10
2024,04,22,05,39,3.10
2024,04,22,05,40,3.10
2024,04,22,05,41,3.10
2024,04,22,05,42,3.10
2024,04,22,05,43,3.20
2024,04,22,05,44,3.20
2024,04,22,05,45,3.20
2024,04,22,05,46,3.20
2024,04,22,05,47,3.20
2024,04,22,05,48,3.20
2024,04,22,05,49,3.10
2024,04,22,05,50,3.10
2024,04,22,05,51,3.10
2024,04,22,05,52,3.10
2024,04,22,05,53,3.10
2024,04,22,05,54,3.10
2024,04,22,05,55,3.10
2024,04,22,05,56,3.10
2024,04,22,05,57,3.00
2024,04,22,05,58,3.00
2024,04,22,05,59,3.00
2024,04,22,06,00,3.00
2024,04,22,06,01,3.00
2024,04,22,06,02,2.90
2024,04,22,06,03,2.90
2024,04,22,06,04,2.90
2024,04,22,06,05,2.90
2024,04,22,06,06,2.90
2024,04,22,06,07,2.90
2024,04,22,06,08,2.90
2024,04,22,06,09,2.90
2024,04,22,06,10,2.90
2024,04,22,06,11,2.90
2024,04,22,06,12,3.00
2024,04,22,06,13,3.00
2024,04,22,06,14,3.00
2024,04,22,06,15,2.90
2024,04,22,06,16,2.90
2024,04,22,06,17,2.90
2024,04,22,06,18,2.90
2024,04,22,06,19,2.90
2024,04,22,06,20,2.80
2024,04,22,06,21,2.80
2024,04,22,06,22,2.80
2024,04,22,06,23,2.80
2024,04,22,06,24,2.80
2024,04,22,06,25,2.70
2024,04,22,06,26,2.70
2024,04,22,06,27,2.70
2024,04,22,06,28,2.70
2024,04,22,06,29,2.70
2024,04,22,06,30,2.70
2024,04,22,06,31,2.60
2024,04,22,06,32,2.60
2024,04,22,06,33,2.70
2024,04,22,06,34,2.70
2024,04,22,06,35,2.70
2024,04,22,06,36,2.70
2024,04,22,06,37,2.70
2024,04,22,06,38,2.70
2024,04,22,06,39,2.70
2024,04,22,06,40,2.60
2024,04,22,06,41,2.60
2024,04,22,06,42,2.60
2024,04,22,06,43,2.60
2024,04,22,06,44,2.70
2024,04,22,06,45,2.60
2024,04,22,06,46,2.60
2024,04,22,06,47,2.60
2024,04,22,06,48,2.70
2024,04,22,06,49,2.70
2024,04,22,06,50,2.70
2024,04,22,06,51,2.70
2024,04,22,06,52,2.70
2024,04,22,06,53,2.70
2024,04,22,06,54,2.70
2024,04,22,06,55,2.70
2024,04,22,06,56,2.70
2024,04,22,06,57,2.70
2024,04,22,06,58,2.70
2024,04,22,06,59,2.70
2024,04,22,07,00,2.70
2024,04,22,07,01,2.70
2024,04,22,07,02,2.70
2024,04,22,07,03,2.80
2024,04,22,07,04,2.80
2024,04,22,07,05,2.80
2024,04,22,07,06,2.80
2024,04,22,07,07,2.80
2024,04,22,07,08,2.90
2024,04,22,07,09,2.90
2024,04,22,07,10,2.90
2024,04,22,07,11,3.00
2024,04,22,07,12,3.00
2024,04,22,07,13,3.10
2024,04,22,07,14,3.10
2024,04,22,07,15,3.20
2024,04,22,07,16,3.20
2024,04,22,07,17,3.30
2024,04,22,07,18,3.30
2024,04,22,07,19,3.40
2024,04,22,07,20,3.40
2024,04,22,07,21,3.50
2024,04,22,07,22,3.50
2024,04,22,07,23,3.60
2024,04,22,07,24,3.60
2024,04,22,07,25,3.60
2024,04,22,07,26,3.70
2024,04,22,07,27,3.70
2024,04,22,07,28,3.80
2024,04,22,07,29,3.80
2024,04,22,07,30,3.90
2024,04,22,07,31,3.90
2024,04,22,07,32,4.00
2024,04,22,07,33,4.10
2024,04,22,07,34,4.20
2024,04,22,07,35,4.20
2024,04,22,07,36,4.30
2024,04,22,07,37,4.30
2024,04,22,07,38,4.40
2024,04,22,07,39,4.40
2024,04,22,07,40,4.50
2024,04,22,07,41,4.60
2024,04,22,07,42,4.60
2024,04,22,07,43,4.60
2024,04,22,07,44,4.70
2024,04,22,07,45,4.80
2024,04,22,07,46,4.80
2024,04,22,07,47,4.80
2024,04,22,07,48,4.90
2024,04,22,07,49,4.90
2024,04,22,07,50,4.90
2024,04,22,07,51,5.00
2024,04,22,07,52,5.10
2024,04,22,07,53,5.20
2024,04,22,07,54,5.20
2024,04,22,07,55,5.30
2024,04,22,07,56,5.40
2024,04,22,07,57,5.50
2024,04,22,07,58,5.60
2024,04,22,07,59,5.70
2024,04,22,08,00,5.80
2024,04,22,08,01,5.90
2024,04,22,08,02,5.90
2024,04,22,08,03,5.90
2024,04,22,08,04,6.00
2024,04,22,08,05,6.10
2024,04,22,08,06,6.20
2024,04,22,08,07,6.20
2024,04,22,08,08,6.30
2024,04,22,08,09,6.40
2024,04,22,08,10,6.40
2024,04,22,08,11,6.50
2024,04,22,08,12,6.60
2024,04,22,08,13,6.70
2024,04,22,08,14,6.80
2024,04,22,08,15,6.90
2024,04,22,08,16,7.00
2024,04,22,08,17,7.00
2024,04,22,08,18,7.10
2024,04,22,08,19,7.20
2024,04,22,08,20,7.30
2024,04,22,08,21,7.40
2024,04,22,08,22,7.50
2024,04,22,08,23,7.60
2024,04,22,08,24,7.60
2024,04,22,08,25,7.70
2024,04,22,08,26,7.80
2024,04,22,08,27,7.90
2024,04,22,08,28,7.90
2024,04,22,08,29,8.00
2024,04,22,08,30,8.10
2024,04,22,08,31,8.10
2024,04,22,08,32,8.20
2024,04,22,08,33,8.20
2024,04,22,08,34,8.20
2024,04,22,08,35,8.30
2024,04,22,08,36,8.30
2024,04,22,08,37,8.40
2024,04,22,08,38,8.40
2024,04,22,08,39,8.40
2024,04,22,08,40,8.50
2024,04,22,08,41,8.50
2024,04,22,08,42,8.60
2024,04,22,08,43,8.60
2024,04,22,08,44,8.70
2024,04,22,08,45,8.70
2024,04,22,08,46,8.70
2024,04,22,08,47,8.70
2024,04,22,08,48,8.80
2024,04,22,08,49,8.80
2024,04,22,08,50,8.80
2024,04,22,08,51,8.80
2024,04,22,08,52,8.80
2024,04,22,08,53,8.80
2024,04,22,08,54,8.90
2024,04,22,08,55,9.00
2024,04,22,08,56,9.10
2024,04,22,08,57,9.10
2024,04,22,08,58,9.20
2024,04,22,08,59,9.20
2024,04,22,09,00,9.20
2024,04,22,09,01,9.20
2024,04,22,09,02,9.30
2024,04,22,09,03,9.30
2024,04,22,09,04,9.40
2024,04,22,09,05,9.40
2024,04,22,09,06,9.40
2024,04,22,09,07,9.50
2024,04,22,09,08,9.60
2024,04,22,09,09,9.60
2024,04,22,09,10,9.70
2024,04,22,09,11,9.70
2024,04,22,09,12,9.70
2024,04,22,09,13,9.70
2024,04,22,09,14,9.80
2024,04,22,09,15,9.80
2024,04,22,09,16,9.80
2024,04,22,09,17,9.80
2024,04,22,09,18,9.90
2024,04,22,09,19,9.80
2024,04,22,09,20,9.90
2024,04,22,09,21,9.90
2024,04,22,09,22,10.00
2024,04,22,09,23,10.00
2024,04,22,09,24,9.90
2024,04,22,09,25,10.00
2024,04,22,09,26,10.10
2024,04,22,09,27,10.20
2024,04,22,09,28,10.20
2024,04,22,09,29,10.20
2024,04,22,09,30,10.20
2024,04,22,09,31,10.20
2024,04,22,09,32,10.20
2024,04,22,09,33,10.20
2024,04,22,09,34,10.10
2024,04,22,09,35,10.20
2024,04,22,09,36,10.20
2024,04,22,09,37,10.30
2024,04,22,09,38,10.40
2024,04,22,09,39,10.40
2024,04,22,09,40,10.40
2024,04,22,09,41,10.40
2024,04,22,09,42,10.40
2024,04,22,09,43,10.40
2024,04,22,09,44,10.40
2024,04,22,09,45,10.40
2024,04,22,09,46,10.40
2024,04,22,09,47,10.40
2024,04,22,09,48,10.50
2024,04,22,09,49,10.50
2024,04,22,09,50,10.60
2024,04,22,09,51,10.60
2024,04,22,09,52,10.60
2024,04,22,09,53,10.60
2024,04,22,09,54,10.70
2024,04,22,09,55,10.60
2024,04,22,09,56,10.50
2024,04,22,09,57,10.40
2024,04,22,09,58,10.40
2024,04,22,09,59,10.40
2024,04,22,10,00,10.50
2024,04,22,10,01,10.60
2024,04,22,10,02,10.50
2024,04,22,10,03,10.50
2024,04,22,10,04,10.60
2024,04,22,10,05,10.60
2024,04,22,10,06,10.70
2024,04,22,10,07,10.80
2024,04,22,10,08,10.80
2024,04,22,10,09,10.90
2024,04,22,10,10,10.90
2024,04,22,10,11,10.80
2024,04,22,10,12,10.80
2024,04,22,10,13,10.80
2024,04,22,10,14,10.80
2024,04,22,10,15,10.80
2024,04,22,10,16,10.80
2024,04,22,10,17,10.90
2024,04,22,10,18,10.90
2024,04,22,10,19,11.00
2024,04,22,10,20,11.00
2024,04,22,10,21,11.00
2024,04,22,10,22,11.10
2024,04,22,10,23,11.10
2024,04,22,10,24,11.20
2024,04,22,10,25,11.30
2024,04,22,10,26,11.30
2024,04,22,10,27,11.30
2024,04,22,10,28,11.30
2024,04,22,10,29,11.30
2024,04,22,10,30,11.40
2024,04,22,10,31,11.50
2024,04,22,10,32,11.50
2024,04,22,10,33,11.40
2024,04,22,10,34,11.40
2024,04,22,10,35,11.50
2024,04,22,10,36,11.60
2024,04,22,10,37,11.60
2024,04,22,10,38,11.70
2024,04,22,10,39,11.60
2024,04,22,10,40,11.60
2024,04,22,10,41,11.60
2024,04,22,10,42,11.80
2024,04,22,10,43,11.80
2024,04,22,10,44,11.90
2024,04,22,10,45,11.90
2024,04,22,10,46,11.80
2024,04,22,10,47,11.80
2024,04,22,10,48,11.80
2024,04,22,10,49,11.80
2024,04,22,10,50,11.80
2024,04,22,10,51,11.80
2024,04,22,10,52,11.90
2024,04,22,10,53,12.00
2024,04,22,10,54,12.10
2024,04,22,10,55,12.20
2024,04,22,10,56,12.30
2024,04,22,10,57,12.20
2024,04,22,10,58,12.00
2024,04,22,10,59,11.90
2024,04,22,11,00,11.80
2024,04,22,11,01,11.80
2024,04,22,11,02,11.80
2024,04,22,11,03,11.90
2024,04,22,11,04,11.90
2024,04,22,11,05,11.90
2024,04,22,11,06,11.80
2024,04,22,11,07,11.70
2024,04,22,11,08,11.80
2024,04,22,11,09,11.90
2024,04,22,11,10,11.90
2024,04,22,11,11,11.90
2024,04,22,11,12,11.90
2024,04,22,11,13,11.90
2024,04,22,11,14,11.90
2024,04,22,11,15,11.90
2024,04,22,11,16,12.00
2024,04,22,11,17,11.90
2024,04,22,11,18,11.90
2024,04,22,11,19,11.90
2024,04,22,11,20,11.90
2024,04,22,11,21,11.90
2024,04,22,11,22,11.90
2024,04,22,11,23,11.90
2024,04,22,11,24,11.90
2024,04,22,11,25,11.80
2024,04,22,11,26,11.80
2024,04,22,11,27,11.90
2024,04,22,11,28,12.10
2024,04,22,11,29,12.10
2024,04,22,11,30,12.20
2024,04,22,11,31,12.20
2024,04,22,11,32,12.10
2024,04,22,11,33,12.00
2024,04,22,11,34,12.00
2024,04,22,11,35,11.90
2024,04,22,11,36,11.80
2024,04,22,11,37,11.70
2024,04,22,11,38,11.60
2024,04,22,11,39,11.60
2024,04,22,11,40,11.70
2024,04,22,11,41,11.70
2024,04,22,11,42,11.80
2024,04,22,11,43,12.00
2024,04,22,11,44,12.10
2024,04,22,11,45,12.20
2024,04,22,11,46,12.20
2024,04,22,11,47,12.30
2024,04,22,11,48,12.50
2024,04,22,11,49,12.60
2024,04,22,11,50,12.60
2024,04,22,11,51,12.50
2024,04,22,11,52,12.30
2024,04,22,11,53,12.10
2024,04,22,11,54,12.00
2024,04,22,11,55,12.00
2024,04,22,11,56,12.10
2024,04,22,11,57,12.10
2024,04,22,11,58,12.20
2024,04,22,11,59,12.10
2024,04,22,12,00,12.00
2024,04,22,12,01,12.00
2024,04,22,12,02,12.00
2024,04,22,12,03,12.20
2024,04,22,12,04,12.40
2024,04,22,12,05,12.60
2024,04,22,12,06,12.70
2024,04,22,12,07,12.80
2024,04,22,12,08,12.90
2024,04,22,12,09,12.80
2024,04,22,12,10,12.80
2024,04,22,12,11,12.80
2024,04,22,12,12,12.60
2024,04,22,12,13,12.50
2024,04,22,12,14,12.50
2024,04,22,12,15,12.50
2024,04,22,12,16,12.70
2024,04,22,12,17,12.80
2024,04,22,12,18,12.80
2024,04,22,12,19,12.90
2024,04,22,12,20,13.00
2024,04,22,12,21,13.20
2024,04,22,12,22,13.40
2024,04,22,12,23,13.60
2024,04,22,12,24,13.80
2024,04,22,12,25,13.80
2024,04,22,12,26,13.90
2024,04,22,12,27,13.90
2024,04,22,12,28,13.80
2024,04,22,12,29,13.70
2024,04,22,12,30,13.70
2024,04,22,12,31,13.70
2024,04,22,12,32,13.50
2024,04,22,12,33,13.40
2024,04,22,12,34,13.40
2024,04,22,12,35,13.20
2024,04,22,12,36,13.20
2024,04,22,12,37,13.20
2024,04,22,12,38,13.20
2024,04,22,12,39,13.30
2024,04,22,12,40,13.40
2024,04,22,12,41,13.50
2024,04,22,12,42,13.50
2024,04,22,12,43,13.40
2024,04,22,12,44,13.40
2024,04,22,12,45,13.50
2024,04,22,12,46,13.60
2024,04,22,12,47,13.70
2024,04,22,12,48,13.90
2024,04,22,12,49,14.00
2024,04,22,12,50,14.00
2024,04,22,12,51,14.10
2024,04,22,12,52,14.10
2024,04,22,12,53,14.00
2024,04,22,12,54,13.90
2024,04,22,12,55,13.90
2024,04,22,12,56,14.00
2024,04,22,12,57,14.10
2024,04,22,12,58,14.20
2024,04,22,12,59,14.10
2024,04,22,13,00,13.90
2024,04,22,13,01,13.90
2024,04,22,13,02,13.80
2024,04,22,13,03,13.80
2024,04,22,13,04,13.90
2024,04,22,13,05,13.90
2024,04,22,13,06,14.00
2024,04,22,13,07,14.10
2024,04,22,13,08,14.00
2024,04,22,13,09,13.90
2024,04,22,13,10,13.80
2024,04,22,13,11,13.90
2024,04,22,13,12,14.00
2024,04,22,13,13,14.20
2024,04,22,13,14,14.20
2024,04,22,13,15,14.20
2024,04,22,13,16,14.10
2024,04,22,13,17,13.90
2024,04,22,13,18,13.90
2024,04,22,13,19,13.80
2024,04,22,13,20,13.80
2024,04,22,13,21,13.70
2024,04,22,13,22,13.60
2024,04,22,13,23,13.50
2024,04,22,13,24,13.50
2024,04,22,13,25,13.60
2024,04,22,13,26,13.50
2024,04,22,13,27,13.60
2024,04,22,13,28,13.70
2024,04,22,13,29,13.70
2024,04,22,13,30,13.60
2024,04,22,13,31,13.60
2024,04,22,13,32,13.60
2024,04,22,13,33,13.70
2024,04,22,13,34,13.80
2024,04,22,13,35,14.00
2024,04,22,13,36,14.10
2024,04,22,13,37,14.20
2024,04,22,13,38,14.20
2024,04,22,13,39,14.10
2024,04,22,13,40,14.00
2024,04,22,13,41,14.00
2024,04,22,13,42,14.00
2024,04,22,13,43,14.20
2024,04,22,13,44,14.30
2024,04,22,13,45,14.40
2024,04,22,13,46,14.50
2024,04,22,13,47,14.60
2024,04,22,13,48,14.60
2024,04,22,13,49,14.60
2024,04,22,13,50,14.70
2024,04,22,13,51,14.60
2024,04,22,13,52,14.70
2024,04,22,13,53,14.70
2024,04,22,13,54,14.60
2024,04,22,13,55,14.60
2024,04,22,13,56,14.60
2024,04,22,13,57,14.70
2024,04,22,13,58,14.70
2024,04,22,13,59,14.80
2024,04,22,14,00,14.80
2024,04,22,14,01,15.00
2024,04,22,14,02,15.10
2024,04,22,14,03,15.20
2024,04,22,14,04,15.30
2024,04,22,14,05,15.30
2024,04,22,14,06,15.30
2024,04,22,14,07,15.30
2024,04,22,14,08,15.30
2024,04,22,14,09,15.30
2024,04,22,14,10,15.40
2024,04,22,14,11,15.40
2024,04,22,14,12,15.50
2024,04,22,14,13,15.40
2024,04,22,14,14,15.50
2024,04,22,14,15,15.50
2024,04,22,14,16,15.40
2024,04,22,14,17,15.30
2024,04,22,14,18,15.20
2024,04,22,14,19,15.30
2024,04,22,14,20,15.30
2024,04,22,14,21,15.20
2024,04,22,14,22,15.10
2024,04,22,14,23,15.00
2024,04,22,14,24,15.00
2024,04,22,14,25,15.00
2024,04,22,14,26,15.10
2024,04,22,14,27,15.10
2024,04,22,14,28,15.10
2024,04,22,14,29,15.10
2024,04,22,14,30,15.10
2024,04,22,14,31,15.00
2024,04,22,14,32,15.00
2024,04,22,14,33,14.90
2024,04,22,14,34,14.80
2024,04,22,14,35,14.80
2024,04,22,14,36,14.90
2024,04,22,14,37,14.90
2024,04,22,14,38,14.90
2024,04,22,14,39,14.80
2024,04,22,14,40,14.60
2024,04,22,14,41,14.60
2024,04,22,14,42,14.60
2024,04,22,14,43,14.60
2024,04,22,14,44,14.60
2024,04,22,14,45,14.80
2024,04,22,14,46,14.90
2024,04,22,14,47,14.90
2024,04,22,14,48,14.90
2024,04,22,14,49,15.00
2024,04,22,14,50,15.10
2024,04,22,14,51,15.30
2024,04,22,14,52,15.40
2024,04,22,14,53,15.50
2024,04,22,14,54,15.50
2024,04,22,14,55,15.50
2024,04,22,14,56,15.50
2024,04,22,14,57,15.50
2024,04,22,14,58,15.50
2024,04,22,14,59,15.60
2024,04,22,15,00,15.50
2024,04,22,15,01,15.40
2024,04,22,15,02,15.40
2024,04,22,15,03,15.40
2024,04,22,15,04,15.30
2024,04,22,15,05,15.30
2024,04,22,15,06,15.20
2024,04,22,15,07,15.20
2024,04,22,15,08,15.10
2024,04,22,15,09,15.10
2024,04,22,15,10,15.20
2024,04,22,15,11,15.10
2024,04,22,15,12,15.10
2024,04,22,15,13,15.10
2024,04,22,15,14,14.90
2024,04,22,15,15,14.80
2024,04,22,15,16,14.80
2024,04,22,15,17,14.90
2024,04,22,15,18,15.00
2024,04,22,15,19,15.10
2024,04,22,15,20,15.10
2024,04,22,15,21,15.30
2024,04,22,15,22,15.30
2024,04,22,15,23,15.30
2024,04,22,15,24,15.30
2024,04,22,15,25,15.20
2024,04,22,15,26,15.20
2024,04,22,15,27,15.20
2024,04,22,15,28,15.30
2024,04,22,15,29,15.30
2024,04,22,15,30,15.30
2024,04,22,15,31,15.30
2024,04,22,15,32,15.50
2024,04,22,15,33,15.60
2024,04,22,15,34,15.70
2024,04,22,15,35,15.70
2024,04,22,15,36,15.60
2024,04,22,15,37,15.50
2024,04,22,15,38,15.50
2024,04,22,15,39,15.50
2024,04,22,15,40,15.30
2024,04,22,15,41,15.20
2024,04,22,15,42,15.30
2024,04,22,15,43,15.50
2024,04,22,15,44,15.60
2024,04,22,15,45,15.60
2024,04,22,15,46,15.60
2024,04,22,15,47,15.50
2024,04,22,15,48,15.50
2024,04,22,15,49,15.40
2024,04,22,15,50,15.40
2024,04,22,15,51,15.40
2024,04,22,15,52,15.40
2024,04,22,15,53,15.30
2024,04,22,15,54,15.30
2024,04,22,15,55,15.30
2024,04,22,15,56,15.30
2024,04,22,15,57,15.30
2024,04,22,15,58,15.30
2024,04,22,15,59,15.40
2024,04,22,16,00,15.40
2024,04,22,16,01,15.50
2024,04,22,16,02,15.50
2024,04,22,16,03,15.70
2024,04,22,16,04,15.70
2024,04,22,16,05,15.60
2024,04,22,16,06,15.50
2024,04,22,16,07,15.40
2024,04,22,16,08,15.50
2024,04,22,16,09,15.60
2024,04,22,16,10,15.60
2024,04,22,16,11,15.60
2024,04,22,16,12,15.60
2024,04,22,16,13,15.50
2024,04,22,16,14,15.30
2024,04,22,16,15,15.20
2024,04,22,16,16,15.10
2024,04,22,16,17,15.20
2024,04,22,16,18,15.30
2024,04,22,16,19,15.30
2024,04,22,16,20,15.20
2024,04,22,16,21,15.10
2024,04,22,16,22,15.10
2024,04,22,16,23,15.10
2024,04,22,16,24,15.20
2024,04,22,16,25,15.20
2024,04,22,16,26,15.20
2024,04,22,16,27,15.20
2024,04,22,16,28,15.30
2024,04,22,16,29,15.40
2024,04,22,16,30,15.60
2024,04,22,16,31,15.60
2024,04,22,16,32,15.60
2024,04,22,16,33,15.60
2024,04,22,16,34,15.70
2024,04,22,16,35,15.70
2024,04,22,16,36,15.70
2024,04,22,16,37,15.80
2024,04,22,16,38,15.90
2024,04,22,16,39,16.10
2024,04,22,16,40,16.20
2024,04,22,16,41,16.10
2024,04,22,16,42,16.10
2024,04,22,16,43,16.20
2024,04,22,16,44,16.00
2024,04,22,16,45,15.90
2024,04,22,16,46,15.90
2024,04,22,16,47,15.90
2024,04,22,16,48,15.90
2024,04,22,16,49,15.90
2024,04,22,16,50,16.00
2024,04,22,16,51,16.10
2024,04,22,16,52,16.20
2024,04,22,16,53,16.20
2024,04,22,16,54,16.30
2024,04,22,16,55,16.30
2024,04,22,16,56,16.30
2024,04,22,16,57,16.40
2024,04,22,16,58,16.30
2024,04,22,16,59,16.40
2024,04,22,17,00,16.40
2024,04,22,17,01,16.50
2024,04,22,17,02,16.60
2024,04,22,17,03,16.50
2024,04,22,17,04,16.40
2024,04,22,17,05,16.30
2024,04,22,17,06,16.20
2024,04,22,17,07,16.10
2024,04,22,17,08,16.10
2024,04,22,17,09,15.90
2024,04,22,17,10,15.80
2024,04,22,17,11,15.80
2024,04,22,17,12,15.80
2024,04,22,17,13,15.90
2024,04,22,17,14,15.80
2024,04,22,17,15,15.70
2024,04,22,17,16,15.70
2024,04,22,17,17,15.60
2024,04,22,17,18,15.50
2024,04,22,17,19,15.50
2024,04,22,17,20,15.50
2024,04,22,17,21,15.50
2024,04,22,17,22,15.60
2024,04,22,17,23,15.60
2024,04,22,17,24,15.70
2024,04,22,17,25,15.60
2024,04,22,17,26,15.50
2024,04,22,17,27,15.40
2024,04,22,17,28,15.40
2024,04,22,17,29,15.40
2024,04,22,17,30,15.50
2024,04,22,17,31,15.50
2024,04,22,17,32,15.60
2024,04,22,17,33,15.60
2024,04,22,17,34,15.60
2024,04,22,17,35,15.70
2024,04,22,17,36,15.60
2024,04,22,17,37,15.50
2024,04,22,17,38,15.50
2024,04,22,17,39,15.40
2024,04,22,17,40,15.30
2024,04,22,17,41,15.30
2024,04,22,17,42,15.20
2024,04,22,17,43,15.10